• In Hungary
  • List of Countries
  • For 7 days
  • Water Temperature
  • Satellite Maps
  • Weather Map
  • News
  • Weather Widgets
  • user-avatar
    Login

    Hourly Weather Raski

    Today, 23 October, Tuesday

    Time Temperature Precipitation Wind Pressure Humidity
    00:00 +6°C° 0 mm 4 mps 756 mmHg 87%
    01:00 +5°C° 0 mm 3 mps 756 mmHg 90%
    02:00 +4°C° 0 mm 3 mps 756 mmHg 89%
    03:00 +4°C° 0 mm 3 mps 755 mmHg 88%
    04:00 +4°C° 0 mm 3 mps 755 mmHg 87%
    05:00 +4°C° 0 mm 3 mps 754 mmHg 84%
    06:00 +4°C° 0 mm 4 mps 753 mmHg 81%
    07:00 +4°C° 0 mm 4 mps 753 mmHg 78%
    08:00 +6°C° 0 mm 5 mps 752 mmHg 72%
    09:00 +7°C° 0 mm 6 mps 751 mmHg 66%
    10:00 +8°C° 0 mm 7 mps 750 mmHg 60%
    11:00 +7°C° 0.5 mm 8 mps 749 mmHg 62%
    12:00 +7°C° 0.5 mm 8 mps 748 mmHg 64%
    13:00 +7°C° 0.5 mm 8 mps 747 mmHg 66%
    14:00 +7°C° 0.6 mm 9 mps 747 mmHg 69%
    15:00 +7°C° 0.6 mm 9 mps 746 mmHg 71%
    16:00 +8°C° 0.6 mm 9 mps 745 mmHg 74%
    17:00 +8°C° 0.4 mm 10 mps 744 mmHg 75%
    18:00 +9°C° 0.4 mm 10 mps 743 mmHg 76%
    19:00 +9°C° 0.4 mm 10 mps 743 mmHg 77%
    20:00 +9°C° 0.7 mm 10 mps 742 mmHg 77%
    21:00 +9°C° 0.7 mm 10 mps 741 mmHg 78%
    22:00 +11°C° 0.7 mm 10 mps 741 mmHg 79%
    23:00 +11°C° 0.8 mm 11 mps 740 mmHg 79%

    Tomorrow, 24 October, Wednesday

    Time Temperature Precipitation Wind Pressure Humidity
    00:00 +11°C° 0.8 mm 11 mps 739 mmHg 80%
    01:00 +11°C° 0.8 mm 11 mps 738 mmHg 80%
    02:00 +11°C° 1.2 mm 11 mps 738 mmHg 79%
    03:00 +9°C° 1.2 mm 11 mps 738 mmHg 77%
    04:00 +9°C° 1.2 mm 12 mps 737 mmHg 76%
    05:00 +8°C° 0.3 mm 11 mps 738 mmHg 73%
    06:00 +7°C° 0.3 mm 11 mps 739 mmHg 70%
    07:00 +5°C° 0.3 mm 10 mps 740 mmHg 67%
    08:00 +5°C° 0.1 mm 10 mps 741 mmHg 64%
    09:00 +6°C° 0.1 mm 10 mps 742 mmHg 61%
    10:00 +6°C° 0.1 mm 11 mps 742 mmHg 59%
    11:00 +6°C° 0.2 mm 11 mps 743 mmHg 56%
    12:00 +7°C° 0.2 mm 11 mps 743 mmHg 54%
    13:00 +7°C° 0.2 mm 11 mps 744 mmHg 51%
    14:00 +7°C° 0 mm 10 mps 744 mmHg 50%
    15:00 +6°C° 0 mm 9 mps 745 mmHg 49%
    16:00 +6°C° 0 mm 8 mps 745 mmHg 48%
    17:00 +5°C° 0 mm 8 mps 746 mmHg 51%
    18:00 +5°C° 0 mm 7 mps 747 mmHg 54%
    19:00 +4°C° 0 mm 7 mps 747 mmHg 57%
    20:00 +4°C° 0 mm 6 mps 748 mmHg 59%
    21:00 +4°C° 0 mm 6 mps 748 mmHg 61%
    22:00 +3°C° 0 mm 6 mps 748 mmHg 63%
    23:00 +3°C° 0 mm 6 mps 748 mmHg 65%

    Day after tomorrow, 25 October, Thursday

    Time Temperature Precipitation Wind Pressure Humidity
    00:00 +3°C° 0 mm 6 mps 749 mmHg 67%
    01:00 +2°C° 0 mm 5 mps 749 mmHg 69%
    02:00 +2°C° 0 mm 5 mps 748 mmHg 72%
    03:00 +2°C° 0 mm 5 mps 748 mmHg 74%
    04:00 +3°C° 0 mm 4 mps 747 mmHg 77%
    05:00 +3°C° 0.5 mm 5 mps 747 mmHg 80%
    06:00 +5°C° 0.5 mm 5 mps 746 mmHg 82%
    07:00 +5°C° 0.5 mm 5 mps 745 mmHg 84%
    08:00 +7°C° 0.4 mm 6 mps 745 mmHg 82%
    09:00 +9°C° 0.4 mm 7 mps 744 mmHg 81%
    10:00 +10°C° 0.4 mm 8 mps 744 mmHg 79%
    11:00 +10°C° 0.2 mm 9 mps 743 mmHg 78%
    12:00 +11°C° 0.2 mm 9 mps 743 mmHg 77%
    13:00 +11°C° 0.2 mm 9 mps 743 mmHg 75%
    14:00 +10°C° 0.1 mm 9 mps 743 mmHg 76%
    15:00 +10°C° 0.1 mm 8 mps 743 mmHg 76%
    16:00 +10°C° 0.1 mm 8 mps 743 mmHg 77%
    17:00 +9°C° 0.2 mm 7 mps 744 mmHg 78%
    18:00 +9°C° 0.2 mm 6 mps 744 mmHg 79%
    19:00 +8°C° 0.2 mm 5 mps 745 mmHg 81%
    20:00 +8°C° 0 mm 5 mps 745 mmHg 81%
    21:00 +7°C° 0 mm 5 mps 745 mmHg 81%
    22:00 +7°C° 0 mm 4 mps 746 mmHg 81%
    23:00 +7°C° 0 mm 4 mps 746 mmHg 82%

    26 October, Friday

    Time Temperature Precipitation Wind Pressure Humidity
    00:00 +6°C° 0 mm 4 mps 746 mmHg 84%
    01:00 +7°C° 0 mm 3 mps 746 mmHg 85%
    02:00 +7°C° 0 mm 3 mps 746 mmHg 86%
    03:00 +7°C° 0 mm 3 mps 746 mmHg 86%
    04:00 +5°C° 0 mm 3 mps 745 mmHg 87%
    05:00 +7°C° 0 mm 3 mps 745 mmHg 87%
    06:00 +7°C° 0 mm 2 mps 745 mmHg 88%
    07:00 +7°C° 0 mm 2 mps 745 mmHg 88%
    08:00 +8°C° 0 mm 2 mps 745 mmHg 84%
    09:00 +10°C° 0 mm 3 mps 745 mmHg 80%
    10:00 +11°C° 0 mm 3 mps 745 mmHg 75%
    11:00 +12°C° 0 mm 3 mps 744 mmHg 72%
    12:00 +13°C° 0 mm 3 mps 744 mmHg 68%
    13:00 +14°C° 0 mm 3 mps 744 mmHg 65%
    14:00 +13°C° 0 mm 3 mps 743 mmHg 67%
    15:00 +13°C° 0 mm 3 mps 742 mmHg 69%
    16:00 +12°C° 0 mm 3 mps 742 mmHg 72%
    17:00 +12°C° 0 mm 3 mps 742 mmHg 74%
    18:00 +11°C° 0 mm 3 mps 741 mmHg 76%
    19:00 +11°C° 0 mm 4 mps 741 mmHg 78%
    20:00 +11°C° 0 mm 4 mps 741 mmHg 78%
    21:00 +11°C° 0 mm 4 mps 740 mmHg 79%
    22:00 +11°C° 0 mm 4 mps 740 mmHg 79%
    23:00 +11°C° 0 mm 4 mps 740 mmHg 80%

    27 October, Saturday

    Time Temperature Precipitation Wind Pressure Humidity
    00:00 +11°C° 0 mm 3 mps 740 mmHg 81%
    01:00 +10°C° 0 mm 3 mps 739 mmHg 81%
    02:00 +10°C° 0 mm 3 mps 739 mmHg 83%
    03:00 +10°C° 0 mm 3 mps 739 mmHg 84%
    04:00 +9°C° 0 mm 3 mps 739 mmHg 86%
    05:00 +9°C° 0.1 mm 3 mps 739 mmHg 86%
    06:00 +9°C° 0.1 mm 3 mps 739 mmHg 85%
    07:00 +9°C° 0.1 mm 3 mps 739 mmHg 85%
    08:00 +9°C° 0.2 mm 3 mps 739 mmHg 82%
    09:00 +9°C° 0.2 mm 3 mps 740 mmHg 80%
    10:00 +9°C° 0.2 mm 3 mps 740 mmHg 77%
    11:00 +9°C° 0.2 mm 3 mps 740 mmHg 75%
    12:00 +9°C° 0.2 mm 3 mps 740 mmHg 72%
    13:00 +9°C° 0.2 mm 3 mps 740 mmHg 70%
    14:00 +9°C° 0.1 mm 3 mps 740 mmHg 70%
    15:00 +9°C° 0.1 mm 2 mps 740 mmHg 70%
    16:00 +9°C° 0.1 mm 2 mps 740 mmHg 70%
    17:00 +9°C° 0 mm 1 mps 740 mmHg 71%
    18:00 +9°C° 0 mm 1 mps 740 mmHg 72%
    19:00 +8°C° 0 mm 1 mps 740 mmHg 74%
    20:00 +8°C° 0.1 mm 1 mps 740 mmHg 74%
    21:00 +8°C° 0.1 mm 1 mps 740 mmHg 75%
    22:00 +7°C° 0.1 mm 2 mps 739 mmHg 76%
    23:00 +6°C° 0.2 mm 2 mps 739 mmHg 77%

    28 October, Sunday

    Time Temperature Precipitation Wind Pressure Humidity
    00:00 +6°C° 0.2 mm 2 mps 739 mmHg 78%
    01:00 +6°C° 0.2 mm 2 mps 739 mmHg 79%
    02:00 +6°C° 0.4 mm 2 mps 739 mmHg 79%
    03:00 +6°C° 0.4 mm 2 mps 738 mmHg 80%
    04:00 +5°C° 0.4 mm 2 mps 738 mmHg 80%
    05:00 +5°C° 0.2 mm 2 mps 738 mmHg 81%
    06:00 +5°C° 0.2 mm 2 mps 738 mmHg 81%
    07:00 +5°C° 0.2 mm 2 mps 738 mmHg 82%
    08:00 +5°C° 0.4 mm 2 mps 739 mmHg 79%
    09:00 +6°C° 0.4 mm 2 mps 739 mmHg 76%
    10:00 +5°C° 0.4 mm 3 mps 740 mmHg 73%
    11:00 +5°C° 0.1 mm 3 mps 740 mmHg 69%
    12:00 +7°C° 0.1 mm 3 mps 741 mmHg 65%
    13:00 +8°C° 0.1 mm 3 mps 742 mmHg 61%
    14:00 +7°C° 0 mm 3 mps 742 mmHg 63%
    15:00 +7°C° 0 mm 2 mps 743 mmHg 65%
    16:00 +7°C° 0 mm 2 mps 743 mmHg 66%
    17:00 +6°C° 0 mm 2 mps 744 mmHg 71%
    18:00 +5°C° 0 mm 2 mps 744 mmHg 75%
    19:00 +3°C° 0 mm 3 mps 745 mmHg 79%
    20:00 +4°C° 0 mm 2 mps 745 mmHg 82%
    21:00 +3°C° 0 mm 2 mps 746 mmHg 84%
    22:00 +3°C° 0 mm 2 mps 746 mmHg 86%
    23:00 +3°C° 0 mm 2 mps 747 mmHg 87%

    29 October, Monday

    Time Temperature Precipitation Wind Pressure Humidity
    00:00 +3°C° 0 mm 2 mps 747 mmHg 87%
    01:00 +2°C° 0 mm 2 mps 747 mmHg 87%
    02:00 +2°C° 0 mm 2 mps 747 mmHg 87%
    03:00 +2°C° 0 mm 2 mps 747 mmHg 86%
    04:00 +2°C° 0 mm 2 mps 747 mmHg 86%
    05:00 +3°C° 0 mm 1 mps 748 mmHg 85%
    06:00 +3°C° 0 mm 1 mps 748 mmHg 84%
    07:00 +3°C° 0 mm 1 mps 748 mmHg 84%
    08:00 +4°C° 0 mm 1 mps 748 mmHg 79%
    09:00 +5°C° 0 mm 1 mps 748 mmHg 74%
    10:00 +6°C° 0 mm 1 mps 749 mmHg 69%
    11:00 +7°C° 0 mm 1 mps 748 mmHg 67%
    12:00 +7°C° 0 mm 1 mps 748 mmHg 65%
    13:00 +7°C° 0 mm 2 mps 748 mmHg 63%
    14:00 +6°C° 0 mm 2 mps 747 mmHg 65%
    15:00 +6°C° 0 mm 2 mps 747 mmHg 68%
    16:00 +6°C° 0 mm 2 mps 747 mmHg 70%
    17:00 +6°C° 0 mm 2 mps 747 mmHg 72%
    18:00 +5°C° 0 mm 2 mps 747 mmHg 73%
    19:00 +4°C° 0 mm 3 mps 747 mmHg 75%
    20:00 +4°C° 0.1 mm 3 mps 746 mmHg 76%
    21:00 +4°C° 0.1 mm 3 mps 746 mmHg 77%
    22:00 +4°C° 0.1 mm 3 mps 746 mmHg 78%
    23:00 +3°C° 0.1 mm 4 mps 745 mmHg 79%
    Show more